SL-16 DEB, 22614

Orbit data source: Space-Track

SL-16 DEB, 22614 is space debris in LEO originally from a launch on Fri, 26 Mar 1993 UTC launched from the Tyuratam Missile And Space Complex (TTMTR). Debris objects in space refer to the collection of defunct objects orbiting the Earth. Examples of debris include non-operational satellites, rocket bodies, and fragments generated from explosions, collisions, or faulty payload assembly.

Loading next visibility...
Identifier
22614, 1993-016Y
Orbit
LEO
Country
Flag of CISCIS
Related business
Manufacturer
Unknown
Mission
Spacecraft
Bus & Motor
Unknown
Mass
Unknown
Launch date (UTC)
1993-03-26 (33 years ago)
Launch vehicle
Unknown
Launch site
Tyuratam Missile And Space Complex (TTMTR)
Object type
Payload
Rocket body
Debris
Shape & HBR
Unknown shape, 0.1 m
Radar Cross Section
Small (<0.1 m²)

Expand to show TLE details & history
Last TLE update: 1 day ago

TLE from 1 day ago
0 SL-16 DEB
1 22614U 93016Y   26034.34284674  .00000769  00000-0  62360-3 0  9999
2 22614  70.9991  14.0791 0127611 348.5214 129.9984 13.89531354661769
Epoch: 2026-02-03T08:13Z
TLE epoch observation values (Epoch: 2026-02-03T08:13:41.958Z)
Latitude
55.38306°
Longitude
-92.62376°
Altitude
999.564 km
Speed
7.327 km/s
True Right ascension
10h 57m 18s
True Declination
55° 13' 39"
Sunlit
Object was in full shadow at epoch
Visualization orbit readout
Latitude
Unknown
Longitude
Unknown
Altitude
Unknown
Speed
Unknown
Apparent Right ascension
Unknown
Apparent Declination
Unknown
Sunlit
N/A
Visualization observer readout
Local Sidereal Time
17:14:02
Azimuth
Unknown
Elevation
Unknown
Doppler factor
Unknown
Orbital elements
Apogee altitude
1,021.46 km
Perigee altitude
834.986 km
Semi-major axis
7,306.36 km
Eccentricity
0.01276
Inclination
70.9991°
RAAN
14.0791°
Arg. of periapsis
348.5214°
True anomaly
131.10718°
Mean anomaly
129.9984°
Eccentric anomaly
130.55393°
Mean motion
3.47529 °/min
Orbital period
103.59 mins
BSTAR
0.0006236
Loading maneuver chart data...
Computing Atmospheric mass density...
Loading historical data...
Loading historical data...
Loading historical data...
Loading historical data...
Loading historical data...
Loading historical data...
Loading historical data...

Documentation

Showing up to 5 results
|